Waarnemingen

Advertentie
Mijn weer
Caceres, Spanje (8261): temperatuur & dauwpunt: 07.11.2019 17:00:00 - 13.11.2019 17:00:00 (CET)Caceres, Spanje (8261): windsnelheid: 07.11.2019 17:00:00 - 13.11.2019 17:00:00 (CET)Caceres, Spanje (8261): windrichting: 07.11.2019 17:00:00 - 13.11.2019 17:00:00 (CET)Caceres, Spanje (8261): luchtdruk: 07.11.2019 17:00:00 - 13.11.2019 17:00:00 (CET)Caceres, Spanje (8261): zicht: 07.11.2019 17:00:00 - 13.11.2019 17:00:00 (CET)Caceres, Spanje (8261): neerslag: 07.11.2019 17:00:00 - 13.11.2019 17:00:00 (CET)
Datum & Tijd tt [°C] td [°C] ff [km/u] ff [kn] dd ppp [hPa] vv [km] rr [mm]
13.11.2019 17:00:00 - - - - - - - -
13.11.2019 16:00:00 19,5 9,7 18 10 W 1012,7 20 -
13.11.2019 15:00:00 19,3 9,5 18 10 WNW 1012,3 20 0,0
13.11.2019 14:00:00 18,4 9,5 15 8 WNW 1012,6 20 0,0
13.11.2019 13:00:00 18,3 9,9 16 9 WNW 1013,2 30 -
13.11.2019 12:00:00 17,2 10,3 16 9 W 1013,8 20 0,0
13.11.2019 11:00:00 15,3 11,1 16 9 W 1013,8 20 0,0
13.11.2019 10:00:00 14,3 11,6 21 11 W 1012,9 20 -
13.11.2019 09:00:00 13,4 12,3 21 11 WZW 1012,2 20 0,0
13.11.2019 08:00:00 13,3 12,2 22 12 WZW 1011,0 20 0,0
13.11.2019 07:00:00 13,3 12,4 24 13 WZW 1010,8 20 -
13.11.2019 06:00:00 - - - - - - - -
13.11.2019 05:00:00 12,5 11,7 24 13 ZW 1010,7 3,3 0,2
13.11.2019 04:00:00 13,1 11,2 29 16 WZW 1010,8 19 -
13.11.2019 03:00:00 13,3 10,7 18 10 WZW 1011,3 19 0,0
13.11.2019 02:00:00 12,8 10,5 15 8 WZW 1012,4 20 0,0
13.11.2019 01:00:00 13,0 10,2 22 12 WZW 1012,9 20 -
13.11.2019 00:00:00 12,8 10,7 18 10 WZW 1013,6 20 0,0
12.11.2019 23:00:00 12,6 10,8 16 9 WZW 1014,2 - 0,0
12.11.2019 22:00:00 12,6 9,8 18 10 WZW 1014,5 20 -
12.11.2019 21:00:00 12,3 9,3 26 14 WZW 1014,8 20 0,0
12.11.2019 20:00:00 13,0 8,9 13 7 W 1014,8 20 0,0
12.11.2019 19:00:00 14,5 7,1 16 9 W 1015,1 20 -
12.11.2019 18:00:00 14,8 6,4 11 6 W 1015,3 20 0,0
12.11.2019 17:00:00 15,3 5,8 13 7 W 1015,3 20 0,0
12.11.2019 16:00:00 15,5 4,8 11 6 WNW 1015,6 20 -
12.11.2019 15:00:00 15,3 3,7 16 9 NNW 1016,1 20 0,0
12.11.2019 14:00:00 14,4 3,5 21 11 NW 1017,0 20 0,0
12.11.2019 13:00:00 13,7 3,2 16 9 NNW 1018,1 2,8 -
12.11.2019 12:00:00 12,7 2,5 18 10 NNW 1018,9 20 0,0
12.11.2019 11:00:00 11,3 3,3 16 9 NNW 1018,5 20 0,0
12.11.2019 10:00:00 9,8 3,1 13 7 NW 1019,1 20 -
12.11.2019 09:00:00 8,3 3,3 9 5 NW 1018,8 20 0,0
12.11.2019 08:00:00 7,7 3,4 8 4 WNW 1018,6 20 0,0
12.11.2019 07:00:00 8,0 3,5 4 2 NW 1018,0 25 -
12.11.2019 06:00:00 8,2 3,8 11 6 WNW 1018,0 20 0,0
12.11.2019 05:00:00 8,1 4,1 8 4 WNW 1018,2 20 0,0
12.11.2019 04:00:00 9,0 4,6 9 5 WNW 1018,3 20 -
12.11.2019 03:00:00 9,3 5,1 8 4 WNW 1018,6 20 0,0
12.11.2019 02:00:00 10,0 5,4 11 6 WNW 1019,0 20 0,0
12.11.2019 01:00:00 10,0 5,6 8 4 W 1018,9 20 -
12.11.2019 00:00:00 10,7 6,1 5 3 W 1018,9 20 0,0
11.11.2019 23:00:00 11,7 6,8 11 6 NW 1018,6 20 0,0
11.11.2019 22:00:00 11,9 7,4 9 5 WNW 1018,0 20 -
11.11.2019 21:00:00 12,8 7,5 8 4 NW 1018,1 20 0,0
11.11.2019 20:00:00 13,8 8,0 9 5 NW 1017,6 20 0,0
11.11.2019 19:00:00 14,8 11,9 5 3 N 1017,0 20 -
11.11.2019 18:00:00 15,9 11,9 0 0 N 1016,3 20 0,0
11.11.2019 17:00:00 16,7 12,0 8 4 NNW 1015,8 20 0,0
11.11.2019 16:00:00 17,2 12,1 16 9 NW 1015,8 20 -
11.11.2019 15:00:00 17,9 12,1 18 10 WNW 1015,4 20 0,0
11.11.2019 14:00:00 15,5 12,4 18 10 W 1016,2 20 0,0
11.11.2019 13:00:00 13,3 12,2 11 6 WZW 1017,7 22 -
11.11.2019 12:00:00 12,6 11,2 11 6 WZW 1018,7 20 0,0
11.11.2019 11:00:00 11,1 10,8 11 6 ZW 1019,1 19 0,0
11.11.2019 10:00:00 10,5 9,9 22 12 ZW 1019,5 20 -
11.11.2019 09:00:00 10,0 9,5 21 11 ZW 1019,5 20 0,0
11.11.2019 08:00:00 9,7 9,4 16 9 ZW 1019,3 20 0,0
11.11.2019 07:00:00 9,7 9,1 18 10 ZW 1019,3 20 -
11.11.2019 06:00:00 9,6 8,8 21 11 ZW 1019,4 20 0,0
11.11.2019 05:00:00 9,3 8,8 18 10 ZW 1020,0 20 0,0
11.11.2019 04:00:00 9,3 8,5 22 12 WZW 1020,2 20 -
11.11.2019 03:00:00 9,4 8,2 16 9 WZW 1020,4 20 0,0
11.11.2019 02:00:00 9,4 8,2 16 9 WZW 1020,4 20 0,0
11.11.2019 01:00:00 9,9 7,5 11 6 W 1021,3 20 -
11.11.2019 00:00:00 10,0 6,9 13 7 WNW 1021,6 20 0,0
10.11.2019 23:00:00 9,9 6,8 9 5 WNW 1021,5 20 0,0
10.11.2019 22:00:00 10,1 6,2 16 9 WNW 1021,2 20 -
10.11.2019 21:00:00 10,1 6,1 18 10 WNW 1021,1 20 0,0
10.11.2019 20:00:00 10,3 6,1 16 9 WNW 1021,6 20 0,0
10.11.2019 19:00:00 10,5 6,1 15 8 W 1021,2 20 -
10.11.2019 18:00:00 10,6 6,0 13 7 W 1021,1 20 0,0
10.11.2019 17:00:00 11,0 6,9 13 7 WNW 1021,2 20 0,0
10.11.2019 16:00:00 10,2 7,6 8 4 W 1021,4 19 -
10.11.2019 15:00:00 10,1 6,1 8 4 NW 1021,7 19 0,0
10.11.2019 14:00:00 11,0 4,7 22 12 NW 1021,9 15 0,0
10.11.2019 13:00:00 12,3 2,7 18 10 NW 1022,1 25 -
10.11.2019 12:00:00 12,1 2,3 21 11 NW 1022,2 20 0,0
10.11.2019 11:00:00 11,4 3,2 18 10 NW 1022,1 20 0,0
10.11.2019 10:00:00 10,3 4,0 18 10 NW 1022,4 20 -
10.11.2019 09:00:00 9,1 3,9 18 10 WNW 1022,5 20 0,0
10.11.2019 08:00:00 8,9 4,1 15 8 WNW 1021,8 20 0,0
10.11.2019 07:00:00 8,6 4,6 8 4 NW 1021,3 25 -
10.11.2019 06:00:00 9,2 5,0 11 6 NW 1020,8 20 0,0
10.11.2019 05:00:00 9,7 5,3 11 6 WNW 1020,7 20 0,0
10.11.2019 04:00:00 10,1 5,5 16 9 WNW 1020,9 20 -
10.11.2019 03:00:00 10,6 5,6 22 12 WNW 1020,8 20 0,0
10.11.2019 02:00:00 10,8 5,5 18 10 NW 1020,8 20 0,0
10.11.2019 01:00:00 10,4 6,3 16 9 WNW 1021,1 20 -
10.11.2019 00:00:00 10,6 8,4 16 9 WNW 1021,0 20 0,0
09.11.2019 23:00:00 11,4 10,1 15 8 W 1020,7 20 0,0
09.11.2019 22:00:00 11,6 11,0 9 5 WNW 1020,4 20 -
09.11.2019 21:00:00 12,6 11,8 13 7 WNW 1020,1 20 0,0
09.11.2019 20:00:00 12,4 11,8 24 13 WZW 1020,3 20 0,0
09.11.2019 19:00:00 12,0 11,2 24 13 ZW 1019,7 6 -
09.11.2019 18:00:00 11,9 10,8 11 6 ZW 1020,0 6 0,0
09.11.2019 17:00:00 12,2 10,8 21 11 WZW 1020,2 11 0,0
09.11.2019 16:00:00 14,0 8,2 21 11 WZW 1020,4 20 -
09.11.2019 15:00:00 14,4 7,9 13 7 W 1021,1 20 0,0
09.11.2019 14:00:00 14,1 6,9 15 8 WZW 1021,6 20 0,0
09.11.2019 13:00:00 13,1 5,5 15 8 WZW 1023,0 30 -
09.11.2019 12:00:00 11,8 5,4 11 6 W 1024,4 20 0,0
09.11.2019 11:00:00 11,0 4,0 13 7 WZW 1024,5 20 0,0
09.11.2019 10:00:00 9,8 3,5 9 5 W 1024,7 20 -
09.11.2019 09:00:00 7,7 3,4 9 5 W 1024,9 20 0,0
09.11.2019 08:00:00 6,1 2,4 8 4 W 1024,7 20 0,0
09.11.2019 07:00:00 6,6 2,7 8 4 W 1024,7 25 -
09.11.2019 06:00:00 6,6 2,9 8 4 W 1024,8 20 0,0
09.11.2019 05:00:00 6,5 3,1 11 6 W 1024,2 20 0,0
09.11.2019 04:00:00 7,0 2,7 8 4 W 1024,2 20 -
09.11.2019 03:00:00 7,7 3,0 13 7 WNW 1024,2 20 0,0
09.11.2019 02:00:00 7,5 2,8 8 4 W 1024,6 20 0,0
09.11.2019 01:00:00 7,0 2,3 8 4 W 1025,2 20 -
09.11.2019 00:00:00 7,9 2,4 9 5 NW 1024,8 20 0,0
08.11.2019 23:00:00 9,0 2,1 13 7 WNW 1024,4 20 0,0
08.11.2019 22:00:00 8,6 1,5 11 6 NW 1024,0 20 -
08.11.2019 21:00:00 9,4 1,5 13 7 NW 1023,4 20 0,0
08.11.2019 20:00:00 10,6 1,9 15 8 NW 1023,1 20 0,0
08.11.2019 19:00:00 11,1 1,6 11 6 WNW 1022,1 20 -
08.11.2019 18:00:00 12,6 1,6 13 7 NW 1021,2 20 0,0
08.11.2019 17:00:00 14,0 0,9 16 9 NW 1020,4 20 0,0
08.11.2019 16:00:00 14,0 1,3 22 12 NW 1019,8 20 -
08.11.2019 15:00:00 13,8 1,7 16 9 NW 1019,9 20 0,0
08.11.2019 14:00:00 13,0 1,3 11 6 NW 1020,1 20 0,0
08.11.2019 13:00:00 11,9 1,5 18 10 NW 1020,5 35 -
08.11.2019 12:00:00 10,8 1,3 16 9 NW 1021,1 20 0,0
08.11.2019 11:00:00 9,9 2,0 18 10 NW 1020,8 20 0,0
08.11.2019 10:00:00 8,2 2,4 11 6 WNW 1020,7 30 -
08.11.2019 09:00:00 7,0 2,1 11 6 WNW 1020,2 20 0,0
08.11.2019 08:00:00 6,4 2,3 13 7 WNW 1019,2 20 0,0
08.11.2019 07:00:00 6,0 3,0 16 9 W 1018,5 30 -
08.11.2019 06:00:00 6,6 4,3 16 9 W 1017,8 20 0,0
08.11.2019 05:00:00 7,1 4,7 13 7 W 1017,4 20 0,0
08.11.2019 04:00:00 7,3 4,9 16 9 W 1017,3 20 -
08.11.2019 03:00:00 7,6 5,1 18 10 W 1016,9 20 0,0
08.11.2019 02:00:00 8,2 5,7 13 7 W 1017,0 20 0,0
08.11.2019 01:00:00 8,1 5,2 13 7 WZW 1017,3 20 -
08.11.2019 00:00:00 8,6 5,0 11 6 W 1017,3 20 0,0
07.11.2019 23:00:00 9,3 4,5 15 8 W 1017,2 20 0,0
07.11.2019 22:00:00 9,3 4,5 16 9 W 1017,1 20 -
07.11.2019 21:00:00 9,4 4,0 16 9 W 1016,8 20 0,0
07.11.2019 20:00:00 9,9 3,8 16 9 W 1016,6 20 0,0
07.11.2019 19:00:00 10,9 4,4 18 10 WNW 1015,9 20 -
07.11.2019 18:00:00 12,8 4,2 22 12 WNW 1015,0 20 0,0
07.11.2019 17:00:00 13,9 2,5 26 14 WNW 1014,6 20 0,0

tt = temperatuur
td = dauwpunt
ff = windsnelheid
dd = windrichting
ppp = luchtdruk
vv = zicht
rr = neerslag

Weerstations in de omgeving